RH
44 51 55 57 57 56 56 53 50 47 44 44 42 49 62 66 66 66 60 52 50 52 52 49 52 56 61 69 72 74 70 70 76 82 84 77 78 82 82 90 94 90 86 81 76 70 61 51 41 33 27 24 21 19 18 17 17 16 15 14 12 11 10 9 8 8 8 9 9 10 10 11 11 12 18 29 42 55 64 66 65 62 57 53 50 50 54 63 75 85 85 84 82 77 79 80 77
43 49 54 56 53 52 53 55 53 49 54 52 47 60 69 69 68 65 63 54 50 52 50 49 53 56 57 61 66 72 72 72 75 77 79 79 81 81 84 92 92 87 82 76 67 53 40 30 24 21 19 18 18 19 19 18 17 16 14 11 9 8 7 6 5 5 5 7 7 8 9 10 11 12 12 14 20 30 44 54 58 57 53 49 44 38 33 36 55 75 81 84 86 81 82 80 75
50 50 51 50 48 49 52 57 58 53 61 62 59 72 72 70 73 68 65 58 56 58 53 54 60 62 59 59 62 66 71 73 75 79 80 80 82 82 84 86 83 79 70 59 45 32 25 23 21 21 20 20 21 20 18 17 17 14 11 8 7 5 5 5 5 5 5 6 5 6 7 9 10 11 12 12 12 15 21 31 41 46 47 44 38 30 25 24 33 59 73 74 83 84 83 79 74
59 58 55 48 47 50 54 58 62 62 63 67 70 75 73 74 76 71 67 64 65 64 61 62 65 64 61 62 63 63 68 71 74 78 79 79 81 82 83 80 76 68 52 38 30 27 26 25 25 25 25 25 24 21 16 14 12 10 7 6 5 4 5 4 4 4 4 4 4 5 5 7 8 10 10 11 12 13 13 15 23 29 34 34 32 25 21 25 23 46 65 58 68 75 74 71 70
61 63 58 49 52 55 56 60 65 64 62 70 76 72 74 74 72 70 67 67 67 64 62 63 64 61 59 62 64 62 63 65 69 73 74 73 74 78 77 70 61 49 37 31 31 31 30 29 28 27 26 25 24 18 13 11 8 6 5 4 4 4 4 3 3 3 3 3 4 4 5 6 7 8 9 9 10 12 12 12 14 15 20 21 24 22 22 38 34 36 43 36 42 46 46 50 58
60 63 58 50 57 61 59 62 63 57 54 69 76 71 74 72 70 68 64 67 66 63 61 60 63 61 59 61 61 61 60 60 63 66 65 63 62 64 61 53 44 37 35 36 36 35 34 32 30 27 26 24 21 15 11 9 6 4 3 3 3 3 3 2 3 3 3 3 4 4 4 5 5 7 8 9 10 11 12 12 12 12 14 15 18 19 20 34 30 22 22 20 22 22 24 35 55
56 59 56 49 55 65 66 66 64 59 59 72 76 74 75 70 71 70 66 67 66 65 65 63 65 65 63 60 59 59 60 60 59 59 58 55 53 51 48 44 41 40 40 39 38 37 35 33 31 28 25 23 19 14 10 7 5 4 3 3 3 3 3 3 3 3 3 3 3 3 3 3 4 5 6 7 8 9 11 10 13 13 13 14 16 18 17 19 18 17 17 16 16 16 17 22 39
46 54 52 48 52 61 68 67 67 67 70 76 76 74 73 70 71 73 72 70 69 70 69 68 67 67 65 59 57 57 59 60 58 55 53 51 49 48 47 46 44 44 43 41 40 37 34 33 31 28 26 22 17 12 8 5 4 3 3 3 3 3 3 3 4 4 4 4 3 4 4 4 4 4 4 4 5 5 7 8 11 13 13 15 16 17 18 17 18 18 17 17 17 16 15 14 18
32 45 51 51 54 60 65 62 63 68 72 73 72 74 76 75 73 72 72 66 64 66 68 72 71 68 64 60 59 56 57 57 56 54 52 51 49 49 49 49 48 47 45 43 40 37 35 33 31 29 25 20 14 9 5 4 4 3 3 3 3 4 5 4 5 5 5 5 5 5 5 5 5 4 4 3 4 3 4 5 7 10 13 15 16 17 18 19 20 18 17 17 17 16 13 13 14
21 35 48 54 57 61 57 54 61 64 66 68 71 78 79 77 75 74 72 65 59 57 60 69 73 69 62 60 59 57 55 54 55 55 54 53 52 52 52 52 51 48 46 42 39 37 35 33 31 27 21 16 10 6 4 4 3 4 4 4 5 5 6 6 6 6 6 6 6 6 6 6 6 5 5 5 4 4 3 3 3 5 8 10 12 13 14 15 15 15 14 13 16 18 13 11 11
18 27 42 53 56 52 45 47 54 53 56 65 77 83 81 80 81 82 74 67 57 47 49 60 69 68 62 60 59 57 56 55 55 55 56 57 57 56 55 54 51 48 44 41 39 37 35 33 28 22 16 11 7 4 3 4 4 4 5 6 7 7 7 7 7 7 7 8 7 7 6 6 6 6 6 6 5 5 4 3 3 3 4 5 7 8 10 10 10 11 11 11 13 16 15 11 9
17 23 35 47 50 47 45 44 43 51 63 69 81 88 89 89 88 86 71 59 46 39 47 57 63 66 66 65 60 59 58 57 57 57 59 59 59 58 56 53 49 45 42 41 39 37 34 29 21 14 10 7 5 4 3 3 4 4 7 8 9 9 9 8 8 8 9 9 9 8 8 7 7 7 6 6 6 6 5 4 4 3 3 3 5 6 7 7 7 8 8 8 10 12 13 11 11
17 21 32 44 46 47 47 40 41 61 79 79 81 87 91 86 80 76 61 49 40 40 50 55 60 63 66 68 65 63 61 60 60 60 61 61 61 59 56 51 47 44 42 41 38 35 30 21 12 8 6 5 4 4 4 3 4 5 8 11 10 10 10 10 9 9 9 9 9 9 9 9 8 8 7 7 6 6 6 5 5 5 4 4 4 5 4 5 6 7 7 9 12 13 13 16 22
17 17 31 46 48 49 45 41 47 59 73 78 75 80 85 77 69 66 56 50 48 47 52 54 58 64 67 67 66 67 66 65 64 65 65 64 63 58 54 50 46 44 42 40 37 31 22 12 7 6 5 4 4 4 4 4 4 6 9 11 11 10 10 10 10 10 10 10 9 9 9 9 9 8 8 8 7 7 6 6 6 5 5 5 5 6 6 7 9 12 14 18 22 24 24 27 33
16 18 32 47 49 51 48 47 53 53 57 64 64 68 76 73 68 66 59 56 58 56 55 56 57 63 66 65 68 69 69 69 68 69 67 65 61 57 53 48 45 43 42 40 35 27 16 8 6 6 5 5 5 5 5 5 5 6 8 10 10 10 11 10 11 10 10 10 9 9 9 9 9 9 8 9 8 8 8 7 7 8 8 7 8 10 12 14 16 19 25 33 37 38 38 40 44
17 21 35 46 45 46 46 48 52 49 48 51 55 61 68 73 71 70 64 57 60 59 55 55 56 62 67 70 73 71 71 71 70 69 66 64 60 55 50 46 44 43 43 39 33 23 12 7 7 7 6 6 6 6 6 6 6 7 7 9 10 10 10 10 10 10 10 10 10 9 9 9 9 9 8 9 9 9 9 9 9 12 12 9 11 17 24 30 35 37 41 46 44 43 45 46 48
20 21 30 35 34 35 37 41 44 43 45 47 52 54 58 71 73 69 64 58 56 55 53 56 58 62 70 75 76 74 73 71 70 69 65 61 56 51 47 45 45 45 43 39 31 20 11 8 9 9 9 8 8 7 8 7 7 7 8 9 9 10 10 10 10 10 10 10 10 10 10 9 9 9 8 8 9 10 11 10 12 21 26 21 18 23 36 48 55 59 56 54 52 50 50 48 46
26 22 23 24 24 27 31 35 37 42 45 45 51 51 53 70 78 71 64 59 54 49 48 52 56 61 70 78 79 77 76 73 71 67 62 57 53 49 47 47 46 46 43 38 29 16 10 10 11 12 11 10 9 9 9 9 9 9 9 9 10 10 10 10 10 10 10 10 10 10 10 10 9 8 8 8 9 11 13 11 12 26 39 40 38 36 40 49 57 62 59 53 50 52 56 51 46
32 25 22 22 21 25 31 35 38 43 44 44 50 52 56 69 78 76 69 62 53 44 38 39 48 56 65 76 79 80 79 75 71 65 60 56 53 51 49 48 48 47 42 35 24 14 11 12 13 13 13 12 12 12 12 12 13 12 12 12 12 12 12 12 11 12 11 11 11 11 11 10 10 8 8 8 8 11 11 11 15 36 57 62 64 63 57 54 55 57 56 51 44 43 50 49 44
35 28 26 23 25 33 40 42 42 43 43 42 46 51 56 61 64 66 64 57 49 42 33 31 42 55 64 73 77 80 80 76 70 65 60 56 53 51 50 49 48 45 40 31 20 13 13 14 14 15 14 15 15 16 17 17 18 17 17 16 16 15 15 14 14 14 13 13 12 12 11 11 11 10 9 9 9 9 11 16 26 49 78 90 91 90 86 79 71 70 72 73 68 57 49 48 48
36 33 30 25 31 42 46 46 44 43 43 43 43 46 50 49 47 46 43 40 36 35 35 37 48 63 72 78 80 81 80 75 69 64 58 55 53 50 49 48 47 43 36 28 17 14 15 16 17 17 18 18 19 20 20 21 21 21 20 20 19 18 17 16 16 15 14 14 13 13 12 12 12 11 12 12 11 12 14 21 27 39 63 85 93 90 86 82 75 75 82 86 90 84 72 65 60
37 36 35 32 35 44 47 47 47 45 45 45 44 43 43 40 37 31 26 24 22 27 39 49 56 66 76 83 84 82 78 72 64 59 56 53 51 49 48 46 44 39 32 23 16 16 17 18 20 20 20 20 21 22 22 23 23 22 21 21 20 19 19 18 17 16 16 16 15 15 14 14 14 14 14 14 13 14 17 20 23 29 43 61 72 70 66 67 64 62 71 78 82 79 74 71 68
37 35 36 35 36 44 46 44 44 43 43 43 43 42 40 35 31 26 22 21 19 23 33 45 55 67 78 84 83 77 70 64 58 55 52 50 49 48 46 44 40 34 26 20 17 19 20 21 22 21 21 21 22 23 23 24 23 23 22 22 21 20 20 20 19 19 19 19 18 18 18 17 17 17 16 16 16 16 18 18 18 21 30 41 46 50 50 50 49 45 52 63 68 64 59 64 71
34 33 33 32 34 40 38 35 36 36 38 39 40 41 41 40 35 28 24 22 20 19 23 34 49 64 77 80 76 69 61 57 54 52 50 49 47 45 44 41 36 29 22 19 19 21 23 23 23 23 23 22 23 24 24 24 24 24 23 23 23 22 23 23 24 24 25 24 24 24 24 23 22 22 22 21 21 20 20 20 19 18 19 25 26 31 34 33 32 32 37 47 57 63 64 65 68
30 31 31 31 31 31 27 26 30 32 34 38 39 41 42 42 37 30 24 21 20 21 22 30 45 59 68 69 66 61 56 53 51 49 48 46 45 44 42 38 31 25 21 20 22 24 25 25 24 24 24 24 25 25 26 25 25 25 24 25 25 27 28 28 28 27 26 25 24 24 23 24 23 23 23 23 23 23 24 22 23 23 21 22 21 21 23 23 22 22 24 28 35 43 48 49 53
26 28 29 31 29 28 27 29 33 34 37 42 45 45 43 40 35 29 24 22 21 22 24 31 43 53 59 61 59 55 52 49 48 46 45 44 44 42 38 32 26 23 22 23 24 26 26 26 26 26 26 27 27 27 27 26 26 26 26 28 28 27 25 22 20 17 15 13 12 12 11 12 12 13 13 14 14 15 17 18 18 20 21 22 23 23 23 22 22 21 21 21 22 24 27 32 39
27 27 26 26 25 28 35 42 44 45 49 49 43 39 40 40 36 31 27 24 21 22 25 32 43 51 56 58 56 53 50 48 47 46 45 44 42 38 33 28 25 24 24 25 26 27 27 27 28 28 28 29 29 28 28 27 28 28 28 26 22 17 13 9 8 6 6 5 5 5 4 4 4 4 5 4 5 5 5 7 8 9 10 12 13 14 16 16 16 17 18 19 20 20 22 25 29
45 44 38 34 32 36 45 54 58 60 64 59 45 34 32 32 29 26 26 25 24 24 26 32 42 51 55 56 55 53 50 48 46 46 44 41 37 33 29 26 25 26 27 28 28 28 28 29 30 29 30 30 30 29 29 29 28 25 20 14 10 7 6 5 5 5 4 4 4 4 4 4 4 4 4 4 3 4 4 3 3 3 4 4 4 5 5 6 7 7 9 10 12 14 15 17 19
51 52 50 46 47 54 59 62 63 63 64 61 50 38 31 27 24 23 23 24 25 26 29 33 41 49 53 53 53 51 48 46 45 43 40 37 34 30 27 26 27 28 29 30 30 30 30 30 31 31 32 31 31 31 30 27 21 15 9 6 6 5 5 5 5 5 4 4 4 4 4 4 4 4 4 4 4 4 4 4 4 4 4 4 3 3 3 3 4 4 4 4 4 5 6 7 9
43 45 44 42 47 52 52 49 46 46 46 44 41 37 34 30 27 25 24 23 24 27 30 34 38 43 47 47 47 46 45 43 41 38 36 34 31 29 28 29 30 31 32 32 32 32 32 32 33 33 33 33 33 30 24 17 10 7 6 5 5 5 5 5 5 5 5 5 5 5 5 5 5 5 5 5 5 5 4 4 4 4 4 4 3 3 4 3 3 3 3 3 3 4 3 3 4
35 36 35 35 37 35 32 30 28 27 27 27 31 33 29 26 26 26 26 26 28 31 34 36 38 39 41 42 43 42 41 39 37 36 35 33 30 29 31 32 33 33 33 34 33 33 34 35 35 35 35 34 28 20 12 8 7 6 6 5 5 5 6 6 6 6 6 6 6 6 6 6 6 5 6 5 5 5 4 4 4 4 3 3 3 3 3 3 3 3 3 3 3 3 3 3 3
25 27 28 26 26 23 21 21 19 17 18 20 27 31 24 21 23 25 26 28 31 34 36 38 38 38 39 39 40 39 38 36 36 35 34 33 31 31 33 34 34 35 35 35 34 35 37 37 37 37 33 25 16 10 7 6 6 5 5 6 6 6 6 6 7 7 7 7 7 7 7 7 7 6 6 6 6 6 5 5 4 4 4 3 3 3 3 3 3 2 3 3 3 3 2 2 3
20 22 23 20 18 18 19 19 17 17 20 22 26 28 25 23 23 22 22 23 24 27 30 34 37 37 36 36 36 36 35 35 35 34 34 33 32 34 35 35 36 37 36 35 36 38 39 39 38 32 22 12 8 7 7 6 5 6 6 6 6 7 7 7 8 7 8 8 8 8 8 8 8 7 7 7 6 6 5 5 4 4 3 3 3 3 3 3 3 3 3 3 2 2 3 2 2
17 19 19 17 16 17 19 19 20 21 24 26 27 29 29 27 25 24 23 22 21 21 22 26 31 34 34 34 34 34 34 35 35 34 34 34 35 36 36 37 38 37 37 37 38 40 40 38 30 19 10 7 7 6 6 6 6 7 7 7 8 8 8 8 9 9 9 9 9 9 9 9 9 8 8 8 8 7 7 6 5 4 3 3 3 3 3 3 3 3 3 3 3 3 3 3 2
16 17 18 18 20 22 24 25 26 27 28 29 31 32 31 29 27 27 28 27 25 23 22 23 25 27 29 30 32 34 35 35 35 35 35 37 37 38 38 39 39 38 38 39 41 42 38 28 16 9 8 7 6 6 6 7 7 7 8 9 9 9 10 10 10 10 10 10 10 10 10 9 9 9 9 9 9 8 8 7 7 5 4 4 3 3 3 3 3 3 3 3 3 3 3 3 3
19 20 22 26 29 30 32 33 33 34 33 33 34 33 31 30 29 29 31 31 30 28 25 24 24 24 25 28 31 34 35 34 35 36 37 38 38 39 40 39 39 39 40 42 43 38 25 13 9 8 7 6 6 7 7 8 8 9 9 10 11 11 11 12 12 12 12 11 11 11 11 11 10 10 10 10 10 9 9 9 8 8 7 5 4 4 4 4 4 4 4 4 3 4 3 3 3
26 26 29 31 31 30 31 34 34 33 34 35 35 33 32 31 31 33 34 34 32 30 28 26 26 26 27 30 33 34 34 35 36 36 37 38 39 40 39 39 39 40 42 44 39 25 12 8 8 7 6 7 7 8 8 9 10 10 11 12 12 13 12 13 13 13 13 13 13 13 12 12 12 12 12 11 11 10 10 10 10 9 9 8 7 6 5 4 4 4 4 4 4 4 4 4 3
28 30 32 32 31 32 32 32 32 30 31 34 34 34 33 33 34 36 36 35 32 30 30 30 30 30 32 33 35 35 35 36 36 36 36 37 39 39 39 39 41 44 45 39 25 12 8 8 7 6 7 8 8 9 10 10 11 12 13 14 13 14 14 14 14 14 14 14 14 14 14 14 14 14 13 13 12 12 11 11 11 10 10 9 9 8 7 6 5 5 5 5 5 5 5 5 4
36 38 36 35 34 34 34 33 31 31 33 36 36 36 36 36 37 38 37 35 34 35 36 36 36 35 35 36 37 37 37 37 35 35 36 37 39 39 40 42 44 47 40 25 13 8 8 7 6 7 7 8 9 10 12 12 13 14 14 14 14 14 14 14 15 15 15 15 16 16 16 16 15 15 15 14 14 13 13 12 12 12 11 10 10 9 9 8 7 6 5 5 5 5 5 5 5
42 43 40 39 37 36 36 34 32 32 35 39 39 39 39 38 39 38 37 37 37 39 40 39 38 35 36 38 40 40 39 37 35 35 38 39 41 42 42 45 47 40 24 12 9 8 7 7 7 8 8 10 11 12 13 14 14 14 14 14 14 14 15 15 15 16 16 16 17 17 17 17 17 17 16 16 15 15 15 14 13 13 12 12 11 11 10 9 9 8 7 6 6 6 6 5 5
41 41 42 41 39 37 34 32 33 34 38 41 41 42 42 39 40 38 38 40 40 41 41 38 36 34 37 38 37 38 36 33 33 36 40 43 44 43 45 47 40 24 12 9 9 7 7 8 9 10 11 11 12 14 15 14 14 14 14 14 14 15 15 16 16 16 17 17 17 17 17 18 18 18 18 17 17 17 16 15 15 14 13 13 12 11 11 10 10 9 9 8 7 7 6 6 5
39 39 39 36 33 30 29 33 39 42 46 44 43 53 53 41 38 38 38 39 38 38 38 33 32 32 33 31 30 31 31 31 33 37 43 46 46 47 46 38 23 11 9 9 7 7 8 9 10 11 12 13 14 15 14 14 14 14 14 14 15 15 15 16 16 16 16 17 17 17 18 19 20 20 20 20 19 18 18 16 16 15 14 14 13 12 12 12 11 11 10 9 9 8 7 6 5
38 35 32 33 33 32 35 39 43 46 48 43 43 56 58 42 35 35 34 34 32 33 32 28 28 30 29 28 28 29 30 32 35 37 40 42 44 45 36 21 11 9 9 7 6 8 9 9 11 11 12 14 14 14 14 14 13 14 15 15 15 15 16 16 16 16 17 17 17 18 19 20 21 21 21 21 21 20 19 18 17 16 15 14 14 13 13 13 12 12 12 11 9 8 7 6 5
39 36 35 39 38 39 44 43 43 44 43 43 42 47 53 47 36 33 31 31 31 29 27 25 26 27 28 30 31 30 31 32 35 38 38 40 40 33 21 12 10 9 7 7 7 8 9 10 11 12 13 14 14 14 13 13 13 14 14 15 16 16 16 17 17 17 18 18 19 19 20 21 22 23 23 23 22 21 20 19 18 17 16 15 15 14 14 14 14 13 12 11 9 8 6 5 4
39 40 43 44 41 43 44 41 42 41 41 47 43 42 56 55 37 33 32 28 28 25 23 26 26 26 27 27 28 29 30 31 34 37 39 39 32 20 13 11 10 7 7 8 8 9 10 11 12 13 14 14 14 13 13 13 14 14 15 16 16 17 17 18 18 18 19 19 19 19 21 22 23 24 25 24 23 22 21 20 19 18 17 16 16 15 15 14 14 14 12 11 9 7 5 4 4
39 41 44 44 44 40 35 34 37 41 48 50 42 40 55 55 35 31 34 26 24 23 22 25 25 25 25 25 27 28 28 29 31 33 35 32 22 13 12 12 9 7 8 9 10 11 11 12 13 14 14 14 13 13 13 13 14 15 16 16 17 18 19 19 19 19 20 20 20 20 22 23 25 26 26 26 25 24 23 21 20 19 18 17 17 16 16 16 15 14 12 10 8 6 4 4 3
42 43 44 41 39 34 31 32 34 46 57 48 35 33 47 55 39 27 28 24 22 23 22 24 24 25 26 26 27 27 28 28 28 30 30 24 16 13 14 12 9 8 9 11 12 12 12 13 14 15 14 13 13 13 13 14 15 16 17 17 19 19 20 20 21 21 21 21 21 22 23 25 27 27 27 27 26 25 24 22 21 20 19 19 18 18 17 16 15 14 11 9 7 5 4 4 4
44 45 43 37 35 32 32 33 34 51 58 39 27 28 44 61 45 24 24 24 23 25 25 26 26 26 24 22 23 26 28 28 28 29 25 19 15 15 16 13 9 9 11 12 13 13 13 14 15 14 14 13 13 13 14 15 16 17 18 19 20 21 21 22 22 23 23 23 23 23 24 27 28 29 29 28 28 27 25 24 22 21 20 20 19 18 18 17 15 13 11 8 6 5 4 4 4
42 42 37 33 35 38 47 51 48 52 47 30 25 30 44 52 32 20 26 25 25 27 26 26 26 23 20 16 17 22 27 29 28 27 22 19 18 19 18 14 10 9 11 13 13 14 14 15 15 14 13 14 13 14 15 15 16 17 19 20 21 22 23 24 24 25 24 24 24 25 26 28 30 31 30 29 28 28 26 25 24 22 21 20 20 19 18 17 15 13 10 7 5 5 5 5 5
37 35 31 33 37 46 63 69 60 55 43 29 29 33 38 36 25 25 28 24 26 26 23 24 21 18 17 14 14 17 22 26 27 27 24 21 21 22 20 16 12 10 11 13 14 14 15 15 15 14 14 15 14 15 15 16 17 19 20 21 22 24 24 25 26 26 26 26 25 26 27 29 32 32 31 31 30 28 27 26 25 24 22 21 20 19 18 17 15 12 9 6 5 5 5 5 6
36 33 30 31 33 38 51 57 56 56 44 29 32 37 35 30 26 26 23 21 22 19 17 18 16 15 14 11 10 10 13 19 23 26 27 25 25 25 23 20 15 11 11 14 14 15 16 16 15 15 15 16 16 16 17 18 19 20 21 23 24 25 26 27 28 29 28 27 27 27 29 32 34 34 33 32 31 30 28 27 26 24 23 21 20 19 18 16 14 11 8 6 5 6 6 6 7
37 35 32 31 29 27 33 38 38 40 34 27 31 32 27 23 22 20 19 19 17 14 15 15 14 15 12 9 9 8 9 13 18 22 25 27 28 27 27 26 18 12 12 14 15 16 16 17 17 16 17 18 18 19 20 21 22 22 23 24 25 27 28 29 31 31 30 29 29 30 32 34 35 35 34 33 32 31 30 28 27 25 23 22 20 19 18 16 13 10 7 6 6 6 6 7 8
33 32 32 31 29 26 27 29 28 29 32 30 28 25 21 20 21 19 18 16 13 14 15 15 14 12 9 8 8 8 9 11 15 20 24 29 31 30 31 28 18 12 13 15 16 17 18 18 18 19 20 20 21 22 23 23 23 24 24 25 27 28 30 32 33 33 33 31 31 32 34 36 37 37 36 35 33 32 31 30 28 25 23 21 20 19 18 15 13 10 7 6 6 7 6 7 8
32 30 30 28 28 29 27 26 33 42 45 36 28 26 25 24 23 18 14 12 11 13 14 13 12 9 8 8 8 9 10 10 14 19 23 28 30 30 30 26 17 13 14 16 17 18 19 19 20 21 21 22 24 25 26 25 25 25 26 27 29 31 32 34 35 36 35 33 33 34 36 37 39 38 37 36 35 34 32 31 28 25 23 21 19 18 17 15 13 10 8 7 7 7 8 8 9
33 31 32 29 29 32 28 26 36 49 55 50 37 27 23 24 21 14 10 10 10 11 12 11 9 7 8 8 8 11 11 12 13 14 16 19 21 24 26 23 16 14 15 16 18 19 20 20 21 22 22 24 26 27 27 27 27 27 28 29 31 33 35 36 38 38 37 36 35 36 38 40 41 40 38 37 37 35 33 31 28 25 21 20 19 17 16 14 12 10 8 8 8 9 9 9 10
29 30 32 30 28 29 27 27 32 38 51 58 51 38 27 20 14 10 10 10 10 10 10 8 8 8 8 8 9 12 13 13 14 13 13 14 16 20 24 22 16 14 16 16 18 19 20 21 22 22 23 25 26 28 28 29 28 28 29 31 33 35 37 39 41 41 40 38 38 40 42 43 43 42 40 39 38 36 34 31 27 23 20 19 17 16 15 13 11 10 9 9 10 10 11 11 12
25 25 26 27 26 23 22 25 24 26 42 54 53 46 29 12 9 10 9 9 9 8 7 7 8 8 7 9 10 12 14 15 15 15 15 14 14 19 22 21 17 16 16 16 17 19 20 22 22 23 24 25 26 28 29 30 30 30 31 33 35 38 40 42 43 43 43 42 42 44 45 46 45 43 42 41 39 37 34 31 27 22 19 18 17 15 14 13 12 10 10 11 12 12 12 13 14
26 23 23 22 21 19 23 30 26 22 31 38 42 43 27 9 9 9 7 8 7 7 8 8 8 8 9 9 11 14 15 16 17 17 17 16 15 17 22 22 19 17 17 17 17 19 20 22 23 24 25 25 27 29 30 31 31 31 33 35 38 40 43 45 46 46 46 45 47 48 49 49 48 45 43 42 40 38 35 31 25 21 18 17 16 15 14 13 12 11 11 12 13 14 14 15 16
Wind_Speed
10 8 7 8 9 8 9 7 8 10 12 14 13 9 7 8 8 10 16 18 17 18 18 17 18 19 19 17 15 16 15 15 16 19 20 18 17 16 16 16 19 18 16 16 15 15 15 16 17 17 18 19 19 20 20 21 21 21 21 21 22 22 23 24 24 24 23 24 24 23 23 22 21 21 21 21 20 20 19 18 18 16 16 15 15 15 16 17 17 16 15 16 18 19 19 18 18
11 9 7 7 8 9 10 8 9 11 12 15 11 7 8 10 9 10 17 19 19 18 18 18 18 20 21 19 17 16 14 15 16 18 18 16 15 14 14 16 19 17 16 16 15 15 15 16 17 18 18 19 20 20 21 22 22 22 22 22 22 22 21 22 22 22 22 23 23 23 23 23 22 22 22 22 22 22 21 21 20 19 18 17 17 16 17 17 16 16 17 17 17 19 20 20 20
11 10 8 9 10 9 10 10 10 10 13 15 10 6 7 9 9 10 17 19 18 16 17 19 18 19 20 20 20 18 16 17 17 17 18 16 15 14 14 16 18 16 15 15 14 14 15 16 17 18 19 20 20 20 21 23 23 23 23 22 22 21 20 20 20 20 19 20 21 22 22 23 23 23 23 22 22 23 23 23 22 21 21 20 19 18 18 17 16 14 15 19 19 20 21 21 21
10 10 9 9 9 9 10 13 12 11 15 15 9 6 5 8 10 12 18 18 16 15 15 17 16 17 19 20 21 20 19 18 18 17 17 16 15 14 14 16 17 16 15 14 14 15 15 16 17 19 19 20 21 21 21 23 24 24 23 22 22 21 20 19 18 18 18 18 18 19 20 21 22 23 24 23 23 23 24 24 23 23 23 22 21 20 19 18 18 14 13 17 20 21 22 21 21
9 9 8 8 8 10 11 13 14 15 17 14 7 8 7 8 12 14 18 18 16 15 14 14 15 18 20 21 21 20 18 18 19 18 17 16 15 15 14 15 16 15 15 15 15 16 16 17 18 19 20 21 21 21 22 23 24 23 23 22 22 21 20 19 18 18 18 17 17 17 18 19 20 22 23 24 24 24 24 24 24 24 24 24 23 22 21 18 17 17 16 18 19 21 22 22 22
9 9 9 8 9 10 12 13 15 16 16 13 11 11 10 11 13 15 18 18 16 14 13 13 15 17 18 20 20 20 18 18 18 18 17 15 15 15 14 14 14 14 14 15 16 17 17 18 19 20 20 21 21 21 22 23 23 23 22 21 21 21 20 19 18 17 17 17 16 16 16 17 18 18 20 22 23 23 25 25 24 24 25 24 23 23 22 19 19 20 19 20 20 21 21 21 23
8 10 9 9 10 11 14 16 17 16 13 12 13 13 12 12 13 14 16 17 15 13 13 14 14 14 15 17 19 20 19 19 17 17 16 16 15 15 15 14 14 14 15 15 16 17 18 19 19 20 21 22 22 22 22 23 23 22 21 20 20 19 18 17 17 16 16 16 16 15 15 16 15 16 18 19 20 22 23 24 24 25 24 23 23 23 23 22 22 23 22 21 21 21 22 22 23
8 10 10 10 11 11 14 16 16 15 13 12 12 12 14 14 13 13 14 15 14 13 14 15 15 15 14 16 18 18 19 19 18 17 17 16 15 15 16 15 15 15 16 16 17 18 19 20 20 21 22 22 23 22 22 22 22 21 20 19 18 17 16 16 15 15 15 15 14 13 13 14 14 15 16 18 19 21 22 22 23 24 23 23 23 24 25 25 24 24 24 23 22 23 24 24 23
8 10 11 11 11 13 15 16 15 12 12 12 12 15 17 15 13 12 12 13 13 13 15 17 17 17 16 16 16 17 18 19 19 19 18 17 16 16 16 16 16 16 17 18 19 19 20 21 21 22 23 23 23 22 22 22 21 20 19 17 16 16 14 14 14 13 14 14 13 13 13 13 13 14 15 17 18 19 21 22 23 23 23 24 24 24 26 26 26 26 26 24 24 26 27 26 25
8 10 12 12 13 15 16 16 12 9 11 13 14 16 18 17 16 14 13 12 12 14 16 18 18 17 16 16 16 17 18 20 21 20 19 18 18 17 17 17 17 17 18 19 20 20 21 22 23 24 24 24 24 22 21 21 21 19 18 16 15 14 13 13 12 12 13 13 13 13 14 14 14 14 15 16 16 18 19 21 22 22 22 23 24 25 26 27 26 27 28 27 25 27 28 28 28
8 10 12 13 14 15 15 14 9 8 12 15 16 18 20 20 17 16 14 13 14 15 16 17 17 16 16 16 17 18 20 21 21 20 19 19 19 18 18 18 18 19 19 20 20 21 22 23 24 25 25 25 24 22 20 19 19 18 17 15 13 13 12 12 12 12 12 12 13 13 14 14 14 14 14 15 16 16 18 19 20 21 22 22 23 23 24 25 25 25 26 25 25 26 28 28 28
9 10 12 13 15 15 14 12 8 9 14 16 21 24 22 19 16 15 14 14 14 14 13 14 15 15 16 17 18 20 21 21 21 20 19 19 19 18 18 19 19 19 19 20 21 22 24 25 25 26 25 24 23 21 20 19 18 17 16 14 13 12 12 12 12 12 12 12 13 13 13 13 14 14 14 14 15 16 17 18 18 19 20 21 21 22 23 24 24 24 24 23 23 25 27 27 26
11 11 12 14 15 15 14 13 8 9 15 17 20 21 19 16 14 14 14 14 13 12 13 13 14 15 17 19 20 21 21 21 21 20 19 20 20 19 19 19 19 19 20 20 21 23 25 25 25 25 24 23 21 20 19 18 17 16 15 14 14 12 12 12 12 12 12 13 13 13 13 14 14 14 14 14 15 15 16 18 18 19 19 19 20 21 21 22 22 22 23 22 22 23 25 25 24
11 12 14 15 15 15 16 16 11 10 14 16 16 14 14 16 15 15 15 14 13 12 12 13 14 16 18 21 22 22 22 22 21 20 20 20 20 20 19 19 20 20 20 21 22 24 25 25 24 23 22 21 19 18 18 17 16 16 15 15 15 14 13 13 13 14 13 13 14 14 14 14 15 15 15 14 15 16 16 17 18 19 19 19 19 19 20 20 20 20 21 21 21 22 23 23 23
10 12 15 16 15 15 16 16 12 10 12 15 18 17 17 18 17 17 15 14 14 13 13 14 15 18 20 21 21 22 23 23 21 20 20 21 20 20 20 20 20 21 21 22 24 25 25 25 23 22 20 19 18 18 17 17 16 16 16 17 16 15 15 15 15 16 15 15 16 16 15 16 16 17 17 16 16 16 17 17 18 18 19 19 18 18 19 19 19 19 19 20 21 22 23 23 23
11 14 15 17 16 15 15 15 14 11 12 14 18 20 20 20 19 19 17 15 15 14 15 16 17 19 20 20 20 21 23 22 21 21 21 21 21 20 20 20 21 22 22 24 25 25 25 24 22 21 19 19 18 17 17 17 16 16 17 17 18 17 17 17 17 18 18 18 18 18 18 17 18 20 19 19 18 18 18 19 19 19 19 19 19 18 18 18 18 19 20 21 23 24 24 25 25
13 14 16 18 17 16 15 14 15 13 11 12 16 20 22 24 22 20 18 16 16 16 17 17 18 20 21 22 22 23 23 22 21 21 21 22 21 21 21 21 22 22 23 24 25 25 24 23 21 20 19 18 18 17 16 16 16 16 17 18 19 19 19 19 19 20 20 20 20 21 21 20 20 21 21 21 21 20 20 20 20 20 19 19 19 19 19 19 19 21 22 24 26 26 27 28 28
13 15 17 18 16 17 16 14 15 15 12 10 14 20 23 24 22 21 19 17 17 17 19 19 20 21 22 23 24 24 24 22 22 22 22 22 21 21 21 22 22 23 24 24 25 25 23 22 21 20 19 18 17 16 16 16 16 17 17 18 19 19 20 20 20 21 21 21 22 22 23 23 23 23 23 23 22 22 21 22 22 21 21 21 20 20 21 21 22 24 25 27 28 29 30 31 30
14 16 17 16 15 17 16 14 15 15 12 10 13 19 22 22 21 20 19 18 18 19 20 21 22 23 24 25 25 26 25 23 22 22 23 22 22 22 22 22 23 23 24 25 25 24 22 21 20 19 18 17 16 16 15 15 16 17 18 18 19 20 20 20 21 21 22 22 22 23 24 25 25 25 24 24 23 23 23 24 24 23 23 22 22 21 22 23 24 26 27 29 29 29 30 31 31
15 16 16 14 15 17 14 12 13 15 14 11 11 16 19 19 19 19 19 19 20 21 22 23 23 24 24 26 26 26 26 24 24 24 24 23 23 22 22 22 23 23 24 25 24 23 22 21 19 18 17 16 16 16 15 16 16 17 18 18 19 19 20 21 21 21 22 23 23 23 24 25 26 26 25 25 25 24 25 25 25 24 24 24 23 23 24 25 26 27 28 29 30 30 30 30 30
16 17 16 13 15 17 15 13 13 15 15 12 11 13 16 17 17 19 21 21 22 22 23 23 24 23 24 26 27 27 26 25 24 24 24 24 23 23 22 23 23 24 25 25 24 23 21 20 19 18 17 17 17 17 17 17 18 18 18 19 19 19 19 20 20 21 22 23 23 23 24 24 25 25 26 26 26 26 26 26 26 25 25 26 27 28 28 28 29 29 30 30 31 31 32 32 32
18 18 15 14 16 18 18 17 16 16 16 15 13 13 15 17 18 21 22 22 22 22 23 23 24 24 25 25 26 26 26 26 25 25 24 24 23 23 23 23 24 24 25 25 23 22 21 20 19 18 18 18 18 19 19 19 19 19 19 19 19 19 19 19 19 20 20 21 22 22 23 23 24 24 25 25 26 26 27 27 27 27 27 29 30 32 32 32 32 32 32 33 33 34 35 35 35
18 17 16 16 17 18 18 18 18 18 18 17 15 15 17 18 20 22 22 22 22 22 23 24 24 25 26 26 26 26 26 26 25 24 24 24 24 24 24 24 24 25 25 24 23 22 21 20 19 19 19 20 20 20 20 20 20 20 20 20 19 19 19 18 18 18 19 19 20 21 21 22 23 23 24 24 25 25 26 26 27 27 28 30 32 33 34 34 35 35 35 36 36 36 36 37 37
19 18 17 17 18 18 18 17 17 18 19 18 18 18 20 22 22 23 23 22 21 22 23 24 25 25 26 26 26 26 26 25 25 25 24 24 24 24 24 24 25 25 24 23 22 21 20 20 20 20 20 21 21 21 21 21 20 20 19 19 18 18 18 17 17 17 17 18 19 19 20 21 22 22 23 24 25 25 26 26 27 27 28 29 31 32 34 35 35 36 36 37 38 37 37 37 39
20 19 19 19 19 20 19 17 17 18 19 19 20 22 23 23 24 24 24 23 22 22 22 24 25 25 26 26 26 27 26 25 25 25 25 24 24 24 24 25 25 24 23 22 22 21 20 20 20 21 21 21 21 21 21 21 21 20 19 17 17 16 16 16 16 16 17 18 18 19 20 21 22 23 24 24 25 26 27 27 28 29 29 29 30 31 32 33 33 34 34 35 37 38 38 39 39
19 19 20 21 21 22 22 20 20 21 21 21 22 22 23 24 24 25 26 25 25 25 24 25 25 26 26 27 27 26 26 25 25 24 24 24 24 24 25 25 24 23 23 22 22 21 21 21 21 21 22 22 22 22 22 21 20 19 17 16 15 15 15 16 17 17 18 19 20 20 21 22 23 24 24 25 26 27 28 28 29 30 30 31 31 32 32 33 33 34 34 34 35 36 37 38 39
19 19 21 23 24 24 24 23 23 24 23 23 22 23 25 26 26 27 27 27 27 27 27 26 27 28 28 28 28 27 26 25 25 25 25 25 25 25 24 24 23 23 22 22 21 21 21 22 22 22 22 22 22 22 21 20 18 17 16 15 15 16 16 17 18 19 20 21 22 22 23 24 25 26 26 27 28 28 29 29 30 31 31 32 32 33 34 34 35 35 36 36 36 36 37 38 39
22 22 24 27 28 28 28 27 25 25 26 24 22 24 28 29 29 29 28 29 29 28 28 28 28 29 29 29 28 27 26 26 26 25 25 25 25 24 24 24 23 23 22 22 22 22 22 22 22 22 22 23 22 22 20 18 17 16 16 15 16 17 18 19 20 21 22 22 23 24 24 25 26 27 27 28 29 29 30 30 31 32 32 33 33 34 35 36 36 37 37 38 39 39 39 39 39
22 23 25 26 28 30 29 27 25 24 25 23 20 26 31 30 30 30 29 30 30 30 30 29 29 29 30 29 28 28 27 27 26 26 26 25 25 24 24 24 23 23 22 22 22 22 22 22 22 23 23 22 21 20 18 17 16 16 16 16 17 18 19 20 20 21 22 23 23 24 25 26 26 27 28 29 30 30 31 31 32 33 33 34 34 35 35 36 37 37 38 38 39 40 40 41 41
19 20 22 23 25 28 27 25 24 24 24 23 21 28 32 29 29 31 30 32 32 32 31 30 30 30 30 30 29 28 28 27 27 26 26 25 25 24 24 23 23 23 22 22 22 22 23 23 23 22 22 21 19 18 17 16 16 16 16 17 17 18 18 19 20 20 22 23 23 24 25 26 27 28 29 30 31 32 33 33 34 34 35 35 36 36 37 37 38 38 38 39 40 40 41 41 42
18 19 21 23 24 28 27 24 24 24 24 25 25 31 34 31 30 30 30 32 33 33 32 32 31 31 31 31 30 29 29 28 27 27 26 25 25 24 24 23 23 23 23 23 23 23 23 23 22 22 21 19 17 17 16 16 16 16 16 16 16 17 18 18 19 20 21 22 23 24 25 26 28 28 29 30 32 33 34 34 35 36 36 37 37 38 38 38 39 40 40 40 40 41 41 42 42
20 20 22 23 25 27 26 24 24 23 22 24 25 29 30 29 29 30 30 32 32 32 33 33 33 33 32 32 31 30 30 29 28 27 26 26 25 24 23 23 23 23 23 23 23 23 23 22 21 20 19 17 17 16 16 17 16 16 15 16 16 17 18 19 20 21 21 23 24 25 26 27 28 29 29 30 31 33 34 35 36 36 37 38 38 39 39 39 40 40 41 41 41 42 42 43 43
22 23 23 23 25 25 23 22 22 20 20 23 26 27 26 24 25 27 28 30 31 32 32 32 33 33 33 33 32 31 31 30 29 27 27 26 25 24 24 23 23 24 24 24 23 23 22 21 20 18 17 17 17 17 17 16 16 16 16 16 18 19 20 21 22 22 23 24 25 26 26 27 28 29 30 30 31 32 33 35 36 36 37 38 38 39 39 40 40 40 41 42 43 43 43 43 44
23 24 24 23 24 24 22 21 20 19 20 22 26 30 30 26 25 25 25 27 28 29 30 31 32 32 32 32 32 31 31 29 28 27 26 25 24 24 24 24 24 24 24 24 23 23 21 20 18 17 17 18 18 17 16 16 16 16 17 18 19 21 22 23 24 25 25 26 27 27 28 28 29 29 30 31 31 32 33 34 35 36 37 38 38 39 39 40 40 40 40 41 42 43 44 44 43
21 20 20 19 19 21 21 20 17 17 19 22 27 30 30 28 27 28 27 27 27 27 28 29 30 31 31 30 30 29 29 28 27 26 25 24 24 24 24 25 25 25 25 24 23 22 20 18 17 17 18 19 17 16 15 16 17 18 19 20 21 22 23 24 25 26 27 28 29 30 30 30 31 31 31 32 32 32 33 34 35 36 37 38 38 39 39 39 40 40 40 40 41 41 43 43 43
18 16 16 15 14 16 16 16 14 13 17 22 27 30 31 29 28 29 30 30 29 28 28 28 29 29 29 28 28 28 27 26 25 24 24 24 25 25 25 26 26 26 25 24 22 20 19 18 18 18 19 18 16 15 16 17 18 19 20 21 22 24 24 25 26 27 28 29 30 31 32 32 32 33 33 33 33 33 33 34 35 36 37 38 38 39 39 39 39 39 39 40 40 40 41 42 43
18 17 17 17 18 19 17 16 15 14 17 21 24 28 30 30 30 30 31 31 30 29 29 29 29 28 27 27 26 27 26 24 24 24 24 25 26 26 27 27 27 26 24 22 20 19 18 18 18 18 18 16 15 15 17 18 19 20 21 22 24 25 26 27 27 28 29 30 31 32 33 33 34 34 34 34 34 35 35 35 36 37 38 39 39 40 40 40 40 40 40 40 40 40 40 41 42
18 18 19 20 22 23 22 20 18 17 19 22 22 25 28 30 32 32 32 32 30 29 29 28 28 27 26 25 25 24 24 24 25 26 26 27 27 28 27 27 27 25 23 21 20 19 19 19 18 17 17 16 15 16 17 19 20 21 22 23 24 25 26 27 28 29 30 31 32 33 34 34 35 35 36 36 36 36 36 36 37 37 38 39 40 41 42 42 43 43 42 42 42 42 42 42 43
16 16 19 21 22 22 22 21 19 17 19 23 24 25 28 30 33 33 33 32 29 29 29 27 27 27 27 26 25 25 25 27 28 27 27 27 27 28 27 27 26 24 22 21 20 20 19 18 17 16 17 17 16 17 18 19 21 22 23 24 25 26 27 28 29 30 31 32 33 34 35 35 36 37 37 38 38 38 38 38 39 39 40 40 41 42 42 43 44 45 45 45 45 44 44 44 45
16 16 18 21 22 21 21 21 20 19 20 24 25 27 30 31 31 32 31 30 30 30 30 28 28 28 27 27 27 27 28 29 29 28 26 26 27 27 27 26 24 22 21 20 20 19 17 16 16 16 17 17 17 18 19 20 21 23 24 25 26 27 28 29 30 31 32 33 34 35 36 36 37 38 39 39 40 40 40 40 41 41 41 42 42 42 43 44 45 45 46 47 47 47 47 47 47
17 19 21 22 22 22 22 20 19 19 20 24 23 24 30 33 31 31 29 30 32 31 31 30 29 30 29 29 29 30 31 31 30 27 25 26 27 26 25 24 23 22 21 19 19 18 17 16 16 16 17 18 18 19 19 21 22 23 24 26 27 28 29 30 31 32 32 33 35 35 36 37 38 38 39 40 40 41 41 42 42 43 43 43 43 43 44 44 45 45 46 47 47 48 48 48 48
18 19 21 22 22 21 21 17 15 16 19 22 20 15 18 23 24 24 25 28 30 29 30 29 28 29 29 29 30 30 30 30 29 27 26 26 26 25 25 24 23 21 19 19 19 17 17 16 16 17 18 19 19 20 21 22 23 24 25 26 27 29 30 31 32 33 34 35 36 36 37 38 38 39 40 40 41 41 42 43 43 44 44 44 44 44 44 44 45 45 46 46 46 47 47 47 48
19 19 19 18 17 16 16 14 13 13 13 14 15 12 12 19 22 19 19 23 24 24 26 25 24 25 25 25 26 26 27 28 27 27 27 27 26 26 25 24 22 19 18 19 19 18 18 18 18 19 19 20 20 21 22 23 24 25 26 27 28 30 31 32 34 35 35 36 37 38 38 38 39 40 40 40 41 41 42 43 44 44 45 45 45 45 45 45 45 45 45 45 46 46 46 46 47
17 16 15 13 12 11 10 11 12 13 13 11 12 15 16 22 26 23 21 22 23 24 26 24 24 23 22 22 23 24 25 25 25 26 26 26 25 25 24 22 20 18 18 19 19 19 20 20 20 20 20 21 21 22 23 24 25 26 27 29 30 31 32 34 35 35 36 37 38 39 39 39 40 40 41 41 41 42 42 43 43 44 45 45 46 46 46 46 46 46 46 45 45 45 45 45 45
14 13 11 11 10 9 8 8 10 13 14 12 10 12 11 17 24 21 19 23 25 26 24 22 21 20 19 20 20 22 23 24 24 24 25 24 24 24 22 21 19 18 18 18 19 20 21 21 20 21 21 22 22 23 24 25 26 27 28 30 31 32 34 35 36 37 37 38 39 39 40 40 40 40 41 41 42 42 42 42 43 44 44 45 46 46 46 47 47 47 47 46 46 45 45 44 44
12 11 10 10 9 10 9 7 9 10 11 11 11 12 9 13 25 23 19 25 24 20 17 15 15 15 16 17 18 20 22 22 23 23 24 24 24 24 23 22 20 18 18 19 20 21 21 21 21 22 22 22 22 23 24 25 26 27 29 30 32 33 35 36 37 38 38 39 40 40 40 40 40 41 41 41 41 42 42 43 43 44 44 45 45 46 46 47 47 47 47 47 47 46 45 45 44
10 10 9 9 8 10 9 8 10 6 7 13 14 16 14 9 18 21 18 18 16 12 12 12 13 16 18 18 17 18 20 21 22 23 24 25 25 25 25 23 20 17 18 19 20 21 21 22 22 23 23 22 23 24 25 26 27 28 29 31 32 34 35 37 38 38 39 40 40 41 41 41 41 41 41 41 41 42 42 43 43 44 44 45 45 45 46 46 46 47 47 47 47 47 46 45 45
10 10 9 8 7 8 6 6 6 3 6 12 11 14 17 13 16 19 16 15 15 15 16 15 17 19 19 19 17 16 17 19 20 22 24 25 26 27 26 23 20 18 19 20 21 22 22 23 23 23 23 23 24 25 26 27 27 29 30 31 33 35 36 38 39 39 40 40 41 42 42 42 42 42 42 41 41 42 42 43 44 44 44 44 45 45 45 45 46 46 46 46 46 46 46 45 45
10 10 9 6 2 1 2 2 2 5 8 9 7 7 13 22 28 27 23 21 18 17 17 17 18 18 18 18 16 15 15 18 20 22 24 26 27 27 25 23 21 20 21 21 22 23 23 23 23 24 24 24 25 26 26 28 28 30 31 32 34 35 37 38 39 40 41 41 42 43 43 43 42 42 42 42 42 42 42 42 43 43 43 43 44 44 45 45 45 45 45 45 45 45 45 44 44
9 10 10 7 2 2 2 3 1 5 9 9 8 5 9 21 26 22 19 18 17 18 19 18 18 17 16 15 15 15 16 17 19 22 24 26 27 27 26 24 23 22 23 24 24 24 24 24 24 24 25 25 26 26 27 28 29 31 32 33 35 36 38 39 40 41 42 42 43 43 44 44 43 43 43 43 43 43 43 43 43 42 42 42 42 43 43 44 44 44 44 44 44 44 44 44 44
7 10 10 9 6 3 3 3 2 3 5 6 8 6 6 12 13 15 17 20 21 20 18 16 15 14 12 13 14 15 16 17 19 21 24 26 27 28 28 27 26 25 25 26 26 25 25 25 26 26 26 26 27 27 28 29 30 32 33 34 35 37 39 40 41 42 42 43 44 44 44 44 44 43 43 43 43 44 44 44 44 43 42 42 42 42 42 42 42 42 42 42 42 42 42 43 43
6 10 11 10 10 8 5 4 6 5 4 5 9 10 15 18 21 25 25 23 19 15 14 13 12 11 11 14 15 15 16 17 19 21 23 25 28 29 29 28 27 27 27 27 27 26 27 27 27 27 27 27 28 28 29 30 32 33 34 35 36 38 40 41 42 43 43 44 44 45 45 45 44 44 44 43 43 44 44 45 44 44 43 43 42 42 42 42 42 41 41 41 40 40 41 41 42
6 9 11 11 11 11 8 6 7 4 4 7 9 13 21 22 23 24 19 17 16 14 15 13 10 12 16 17 17 16 16 17 18 20 22 25 28 29 30 30 28 28 28 28 28 28 28 28 28 28 28 28 29 30 31 32 33 34 35 36 37 39 40 42 42 43 44 45 45 45 45 45 45 44 44 44 44 44 44 45 44 44 43 43 43 43 43 43 42 41 41 40 40 40 40 40 40
10 10 10 10 9 10 8 4 2 0 2 7 8 13 18 14 14 19 18 18 19 16 14 13 14 18 20 20 19 17 16 16 19 21 22 25 28 30 31 30 29 28 29 29 29 29 29 30 30 30 30 30 30 31 32 34 34 35 36 37 38 40 41 42 43 44 45 45 46 46 46 46 45 45 44 44 44 44 44 45 44 44 43 43 43 43 43 43 43 42 41 41 40 40 41 41 40
13 13 11 10 7 6 7 4 1 1 2 4 6 11 13 13 17 21 19 17 16 15 15 17 19 21 21 20 19 17 16 17 19 20 22 25 27 29 30 30 29 29 30 30 30 30 31 31 31 31 31 32 32 33 34 35 36 36 37 38 39 40 42 43 44 44 45 46 46 46 46 46 46 45 45 44 44 44 44 44 44 43 43 43 43 43 43 43 43 42 42 41 41 41 41 42 42
12 14 15 15 12 9 8 6 3 2 2 3 5 6 7 12 17 16 15 14 15 16 19 22 22 22 21 20 19 18 18 18 19 20 22 24 27 29 30 30 29 30 32 32 32 32 32 31 32 33 33 33 34 35 36 37 37 37 38 38 40 41 42 43 44 45 46 46 46 47 47 46 46 46 45 44 44 44 44 44 44 43 43 43 42 42 42 42 42 42 42 42 42 42 42 43 43
10 13 15 16 16 12 10 10 9 6 3 2 4 4 6 12 17 17 17 17 17 19 23 24 23 22 21 20 20 20 20 19 20 20 22 24 26 29 30 30 31 32 33 35 34 33 33 33 34 34 34 35 35 36 37 38 38 38 39 39 41 42 43 44 45 46 46 46 47 47 47 47 47 46 45 45 44 44 44 44 43 43 43 43 43 42 42 42 42 42 41 41 42 43 43 44 44
11 12 13 13 14 11 6 5 10 11 7 6 4 4 12 21 22 20 18 18 20 24 25 25 24 22 22 21 21 22 22 22 21 21 22 23 26 29 31 32 32 34 35 36 36 35 35 35 35 35 36 37 37 38 39 39 39 39 40 40 41 42 44 45 46 46 47 47 47 47 47 47 47 47 46 46 45 45 44 44 43 43 43 43 43 42 42 42 42 42 41 41 41 42 44 44 44
Wind_Direction
281 281 278 275 273 271 260 245 240 238 239 246 248 239 229 227 224 220 211 205 208 203 202 210 208 205 202 201 203 207 218 224 222 218 223 236 232 229 231 225 230 237 240 244 248 253 258 261 263 265 268 271 273 275 277 279 280 280 280 280 279 278 278 279 278 275 273 271 270 268 266 265 265 264 262 260 259 260 262 266 268 271 274 276 278 278 276 274 271 270 271 271 270 268 266 264 259
267 273 273 272 268 263 255 242 236 233 238 246 241 240 248 240 230 218 213 208 209 210 210 213 212 212 213 215 213 211 215 221 226 230 236 241 235 230 223 222 232 237 242 245 248 253 259 264 267 270 273 276 277 280 282 283 283 284 283 282 281 281 280 279 277 276 272 270 267 265 264 262 262 262 261 260 259 258 259 262 266 269 271 273 276 278 277 275 272 270 271 271 271 267 263 264 262
254 255 259 267 269 262 250 237 233 230 236 240 232 248 254 229 225 212 209 210 212 215 216 210 206 212 218 221 221 220 220 221 226 230 234 238 235 229 218 222 232 235 239 244 249 253 259 265 269 273 276 279 282 285 286 286 287 287 287 286 285 284 282 279 277 276 273 269 267 265 264 262 261 261 261 260 260 261 260 260 263 267 269 272 274 275 275 275 271 268 270 268 268 267 263 264 264
253 248 247 256 265 255 241 237 234 232 235 237 239 249 231 207 208 202 207 212 213 212 213 209 207 218 223 224 225 226 226 223 225 228 232 236 235 229 218 221 231 234 240 246 251 256 262 267 272 275 279 282 285 289 290 289 289 289 289 289 287 284 282 279 277 275 272 270 269 269 266 264 262 262 262 260 260 261 261 261 262 264 267 270 272 275 276 275 270 263 261 261 262 264 264 264 263
255 250 243 240 246 240 234 237 234 233 236 237 239 233 227 225 218 210 212 212 211 212 211 212 218 227 228 226 226 229 230 229 227 227 230 231 231 227 219 222 229 233 239 247 253 261 267 271 276 279 283 286 289 291 290 289 288 289 289 288 287 284 281 279 277 274 271 270 269 269 269 267 264 264 265 264 263 262 263 263 263 264 265 267 269 272 273 274 271 265 259 259 262 264 265 267 265
258 251 244 233 230 231 230 233 235 238 241 240 240 240 249 254 235 225 222 216 212 217 221 217 221 228 230 228 229 231 232 232 229 228 229 227 227 226 222 225 231 235 241 249 257 264 269 274 279 284 287 289 290 289 288 287 286 287 286 285 284 282 281 279 277 274 272 270 269 269 268 268 267 267 267 268 268 267 266 265 264 263 262 265 267 269 270 271 273 271 268 266 269 270 270 270 266
259 251 245 235 228 225 227 233 238 241 244 243 248 253 261 259 241 231 228 225 223 227 229 223 222 226 230 231 231 232 232 231 228 228 228 226 226 226 227 230 235 243 250 257 264 268 272 277 281 286 288 288 288 287 287 285 284 283 281 280 278 278 278 278 277 275 273 271 271 270 269 269 269 268 267 267 268 267 267 267 266 265 264 264 265 268 270 272 273 273 273 271 270 270 270 268 266
254 250 246 241 234 229 230 237 240 241 245 245 251 261 266 259 241 234 232 232 235 237 233 228 229 230 232 234 231 230 229 229 228 229 229 229 229 230 233 236 241 251 258 265 271 274 277 281 284 286 287 287 287 286 286 283 280 278 276 274 272 272 272 273 275 275 275 274 273 273 272 272 271 269 268 266 265 265 265 266 265 265 266 265 264 267 270 271 272 273 274 274 272 270 268 266 265
250 242 240 240 237 236 240 245 244 243 246 246 252 260 261 252 236 236 236 232 235 241 241 237 235 235 236 235 232 229 227 228 228 229 229 230 232 235 240 244 249 256 262 268 273 277 281 285 287 288 287 287 286 286 283 280 278 275 274 271 270 271 271 270 272 275 276 276 276 276 276 276 275 272 270 269 268 268 266 265 264 264 264 265 266 267 269 270 271 272 272 272 271 271 269 267 263
249 236 233 232 233 237 244 250 249 247 245 247 249 246 246 238 228 232 234 231 238 247 248 244 240 239 239 235 232 229 228 229 229 229 231 233 236 240 246 251 256 260 265 270 274 279 283 287 289 289 289 288 287 285 281 277 276 273 272 271 272 273 275 274 273 275 278 279 280 279 278 278 276 273 272 271 269 270 269 268 267 265 263 262 264 265 266 269 271 272 273 273 272 272 270 267 264
250 232 230 229 233 238 245 251 259 268 253 245 232 223 232 231 223 225 228 235 245 252 250 246 245 245 243 238 233 230 229 230 229 230 232 236 240 244 250 256 262 265 269 273 277 281 284 288 290 290 288 287 286 283 279 274 273 271 270 271 273 275 276 276 275 277 279 280 280 280 280 279 277 275 272 271 271 270 270 270 269 267 264 263 263 263 264 267 269 271 273 274 273 272 272 270 267
251 230 227 230 235 240 246 251 264 274 254 238 221 207 212 219 217 224 233 243 250 253 247 242 243 243 242 238 235 232 231 231 231 233 235 239 244 249 254 260 265 268 272 276 280 283 286 289 290 289 287 286 284 281 277 272 269 267 267 269 270 274 275 275 276 276 277 278 279 280 281 280 279 278 276 274 272 270 269 270 270 268 267 266 264 264 264 265 267 268 269 269 269 270 272 275 275
250 229 224 231 237 237 240 244 249 256 243 236 228 207 201 213 221 231 242 253 256 254 247 242 242 241 239 236 235 234 232 232 234 235 238 243 248 252 257 262 266 269 273 277 282 286 289 290 289 287 285 283 280 277 273 270 267 261 262 267 269 270 272 275 276 274 275 278 280 281 281 282 282 281 280 277 274 270 268 269 269 269 269 268 266 266 265 265 266 267 268 267 267 268 271 275 277
249 232 226 231 238 235 233 238 242 249 244 244 250 232 217 226 232 238 245 251 254 257 255 253 250 244 241 240 238 236 235 235 236 237 240 245 249 254 259 263 266 270 274 279 285 289 291 290 288 286 283 281 278 275 272 270 266 260 258 264 269 270 272 275 277 277 277 278 279 279 281 282 283 282 280 278 274 271 268 267 268 269 269 269 267 267 267 267 266 266 266 267 267 269 271 273 274
245 232 227 231 238 236 235 240 247 255 250 249 256 252 239 238 240 241 243 247 252 257 258 257 254 248 246 247 244 241 240 240 239 239 241 245 249 255 259 263 267 272 277 283 288 291 292 291 288 286 283 282 279 277 274 271 266 261 259 263 269 273 277 278 280 283 283 283 281 281 282 280 282 283 281 278 276 273 270 268 269 270 271 272 270 268 266 267 267 267 267 267 267 268 270 271 270
241 233 228 232 239 240 240 246 251 254 253 250 248 247 244 241 239 238 240 249 256 260 261 260 256 251 249 248 244 241 241 241 241 241 243 247 251 255 258 262 268 274 281 286 291 293 293 292 289 287 284 283 280 278 275 272 268 264 263 265 270 275 278 281 282 285 285 286 285 284 282 279 280 282 281 279 277 276 275 274 273 274 274 275 275 273 270 268 267 267 267 266 267 267 268 269 268
244 239 233 236 242 243 243 248 252 254 259 255 241 240 242 238 235 233 236 247 257 263 266 264 260 256 251 246 244 242 242 242 242 243 245 247 251 255 259 264 271 277 284 289 293 294 293 291 288 286 283 280 277 276 274 272 270 268 267 268 271 275 278 281 283 284 284 285 285 286 285 282 279 278 278 276 275 274 274 275 275 274 272 272 272 272 270 267 265 264 264 265 266 267 267 268 267
244 242 239 241 245 246 246 247 249 254 267 263 239 237 239 236 234 235 239 248 256 264 268 267 263 259 253 248 247 246 246 243 242 243 244 247 253 257 263 268 274 281 286 291 293 293 291 287 285 283 280 277 274 274 273 272 272 272 272 272 274 277 280 282 284 284 284 284 285 285 285 284 281 278 276 275 272 269 269 271 272 270 268 265 263 264 264 263 264 264 265 266 267 268 268 269 269
242 243 242 241 243 247 248 247 246 250 264 265 242 236 236 234 236 239 245 252 258 265 268 268 264 259 254 250 250 250 248 244 242 244 246 251 256 261 266 271 278 283 288 291 292 290 286 283 281 279 277 276 275 275 274 274 275 275 276 277 279 281 283 284 284 284 284 284 283 283 283 283 282 282 280 278 273 267 265 267 269 268 266 264 260 259 260 261 262 264 267 269 271 272 270 269 270
237 238 241 237 237 243 244 242 244 247 256 260 246 238 235 237 242 247 253 258 262 265 266 266 264 261 256 252 251 251 248 244 244 246 250 255 259 264 269 274 280 285 288 290 289 286 282 280 278 278 277 278 278 278 278 278 278 278 279 280 281 282 283 283 283 282 282 282 281 281 281 281 281 282 281 280 276 271 267 266 266 266 264 263 262 260 260 261 263 265 268 271 273 274 272 270 269
233 236 241 238 236 239 239 235 237 245 254 256 247 239 238 244 253 261 266 269 270 269 267 264 262 259 255 252 252 250 247 245 245 248 252 257 262 266 271 276 281 285 287 287 285 282 278 277 277 277 278 279 280 281 281 281 282 282 282 283 284 283 283 283 283 282 282 282 283 282 280 280 281 281 282 281 279 277 272 269 268 267 265 262 261 262 262 264 266 267 268 270 272 273 273 272 272
232 235 235 233 234 236 240 241 240 245 256 259 253 247 248 254 263 269 273 276 277 275 269 265 261 257 253 249 249 248 246 245 246 250 254 258 263 267 273 278 281 284 285 284 282 278 276 275 276 277 279 281 282 283 284 284 285 285 286 287 287 287 286 286 285 285 284 283 284 284 283 282 283 283 283 282 282 281 279 276 274 272 269 265 264 264 266 267 267 266 266 267 268 270 271 272 273
230 232 232 233 235 239 244 249 250 251 257 261 261 258 260 266 271 274 276 277 278 275 270 266 262 258 253 248 245 244 245 246 247 251 255 259 264 268 273 278 281 283 283 281 278 275 273 273 275 277 279 281 282 283 284 284 285 286 288 289 289 290 289 288 287 286 285 284 284 285 285 284 284 284 284 284 284 284 282 281 279 275 271 269 269 270 271 271 271 269 268 268 269 270 270 271 272
229 231 237 239 239 244 251 255 256 255 259 265 269 269 271 274 275 276 276 276 276 274 272 267 261 256 252 248 244 244 244 246 248 252 256 260 265 269 273 277 280 281 279 277 274 271 270 271 273 275 277 278 280 281 283 284 285 286 288 288 288 289 288 287 286 285 285 285 285 284 284 283 284 284 284 284 284 284 283 282 282 279 276 273 272 272 273 274 273 272 270 269 268 268 269 269 270
229 229 235 240 240 244 252 256 255 256 262 268 273 275 276 275 275 275 275 275 275 272 269 264 259 255 251 248 245 244 245 247 250 254 258 262 266 270 274 277 278 278 275 272 269 267 268 270 271 273 275 276 278 280 281 283 284 286 287 286 285 285 284 284 284 284 284 283 284 283 283 283 283 283 283 284 284 284 285 284 283 283 281 279 277 275 275 275 275 275 273 271 268 266 266 268 269
232 231 234 239 242 245 250 255 255 257 262 267 270 274 275 274 274 273 272 272 271 269 266 261 257 254 251 248 245 244 245 248 252 256 259 263 268 272 275 276 276 274 272 268 265 265 266 268 270 271 273 274 276 278 280 282 283 284 283 281 280 280 281 282 283 283 283 283 283 282 282 283 282 283 282 282 282 282 282 282 282 282 282 281 280 280 278 278 278 277 277 275 273 270 269 270 270
239 238 239 242 244 247 250 254 257 258 261 264 268 271 270 269 268 267 269 270 269 267 264 259 255 253 251 248 246 245 247 250 254 258 262 266 270 273 274 274 273 271 268 265 263 263 264 266 268 270 272 274 276 278 280 281 281 280 279 280 281 284 285 285 286 286 286 287 287 288 287 287 287 286 286 285 284 283 282 281 280 280 279 279 278 278 278 278 278 278 278 277 276 275 273 272 272
247 247 248 248 250 252 253 256 259 258 258 259 264 268 267 265 265 265 267 267 266 264 261 258 254 253 251 250 249 249 251 253 257 261 264 268 270 272 272 271 270 267 264 261 260 261 263 265 267 270 272 274 276 277 278 278 277 278 280 284 286 288 289 289 291 291 292 293 294 295 294 294 294 293 293 292 291 289 288 287 285 284 282 281 279 278 278 277 277 276 276 276 276 276 275 274 273
251 253 255 255 256 256 257 258 258 256 256 258 262 263 262 262 263 264 264 264 262 260 258 256 254 253 252 252 252 253 255 258 261 264 266 268 269 270 270 268 265 261 258 257 257 259 261 264 267 269 271 272 273 273 273 274 276 281 285 288 290 291 292 294 295 297 298 299 300 300 300 300 300 299 299 298 297 296 295 293 292 291 289 288 286 284 283 281 279 278 277 276 275 275 274 274 274
251 253 255 257 258 258 259 259 257 256 257 259 259 258 260 262 263 263 263 262 260 258 257 256 255 254 254 255 255 257 259 261 263 264 265 266 267 267 266 263 259 255 253 254 256 259 262 264 266 267 268 268 268 269 270 274 279 284 288 290 292 293 295 297 298 300 302 303 304 304 303 304 303 303 303 302 301 300 299 298 296 295 294 292 291 289 288 286 285 283 281 280 278 276 275 274 273
252 253 254 254 254 259 264 262 260 259 259 260 256 256 260 262 263 262 261 259 258 257 257 257 256 256 257 257 258 259 261 263 263 263 264 265 265 264 261 257 253 251 252 254 257 260 262 264 264 265 265 264 264 266 271 277 282 286 288 291 292 294 296 298 299 301 303 304 304 305 305 305 305 305 305 304 303 302 301 299 298 297 296 295 293 292 291 290 288 287 285 284 282 280 278 277 274
250 250 251 250 252 259 265 264 263 263 262 260 252 253 260 260 259 260 258 258 258 258 258 258 258 258 258 259 260 261 262 262 262 263 263 264 263 260 256 252 250 251 253 255 258 261 262 263 263 262 262 262 265 270 277 281 285 287 289 291 293 295 297 300 302 304 305 306 307 307 308 308 307 306 305 304 303 302 301 299 298 297 296 295 294 293 292 291 290 289 289 287 285 283 282 280 278
249 248 248 251 255 260 262 263 266 266 259 254 249 252 259 260 258 258 258 259 260 260 260 260 259 259 259 260 261 262 262 263 263 264 264 263 261 256 252 249 250 252 254 257 260 262 262 262 260 259 260 265 270 276 282 285 287 289 292 295 298 300 302 304 306 308 309 310 309 309 309 308 307 307 306 305 303 302 301 299 298 297 295 294 293 293 292 291 291 290 289 288 287 286 284 282 281
248 248 251 257 259 261 262 262 265 264 258 254 251 253 257 260 261 261 261 261 261 262 263 262 261 261 261 261 262 263 263 263 264 265 264 261 256 251 249 249 251 254 257 259 261 261 260 258 256 257 262 269 276 281 284 287 290 293 297 300 303 305 308 310 311 312 312 311 310 310 309 309 308 307 307 306 305 303 302 300 298 296 295 294 293 292 292 291 290 289 288 287 286 285 284 283 281
256 255 258 262 263 263 264 266 266 266 266 260 253 254 257 258 260 262 262 261 262 263 264 264 263 263 263 263 264 264 263 263 263 262 258 254 251 248 249 250 252 255 258 259 259 258 255 253 255 260 268 274 279 282 285 289 293 297 301 304 307 309 310 312 312 312 312 311 311 311 310 310 309 309 308 307 306 305 304 301 299 297 295 293 292 291 290 290 289 288 287 286 285 284 283 282 281
267 266 262 258 262 266 270 273 271 270 272 266 260 260 261 261 262 263 264 264 264 265 266 265 265 265 266 266 265 263 263 263 261 258 253 250 248 248 249 251 254 256 257 258 256 253 250 253 260 266 271 276 279 283 288 293 297 301 305 308 309 310 310 311 311 312 312 311 311 311 311 311 310 310 309 309 308 307 306 304 302 299 297 295 292 290 289 288 288 287 286 285 284 284 283 282 281
257 259 258 258 263 269 272 273 273 274 270 265 263 264 265 264 264 264 263 263 263 264 266 268 269 269 269 269 267 263 262 260 256 254 251 249 249 249 252 253 255 256 256 254 250 246 249 256 262 267 270 275 279 286 291 296 301 305 307 308 309 309 310 311 311 312 312 311 311 311 311 311 311 311 310 310 309 308 307 306 304 302 300 298 295 293 291 290 289 288 287 286 285 285 284 283 282
249 253 255 259 264 268 272 272 274 275 265 259 259 259 261 262 261 260 260 261 264 265 268 270 271 270 268 266 264 261 259 255 254 254 253 252 252 253 255 255 255 255 252 247 243 245 252 259 263 266 270 276 284 290 294 298 302 304 305 306 307 308 309 310 311 312 312 311 312 312 312 312 312 311 311 310 310 310 309 309 307 305 304 302 300 298 296 294 292 291 289 288 288 287 287 286 284
252 256 256 258 263 268 273 276 278 274 257 250 251 253 257 258 257 256 258 262 265 266 266 266 267 266 265 264 262 260 258 257 258 258 257 256 255 255 255 253 252 250 245 241 243 250 257 261 264 269 275 282 288 292 296 299 301 302 304 306 307 309 310 311 312 312 312 312 312 312 312 312 312 311 311 311 311 312 312 311 310 309 307 306 304 302 300 298 296 294 292 291 290 290 290 290 289
252 257 259 261 265 268 272 275 278 274 254 244 246 250 252 253 253 254 258 262 262 263 264 264 266 268 267 264 261 261 261 262 263 261 258 256 254 253 253 252 249 243 240 242 249 255 259 261 267 273 280 285 289 293 295 297 300 303 305 307 309 310 311 312 312 312 313 312 312 311 311 312 312 312 311 312 312 313 313 313 312 311 310 309 307 305 303 301 299 297 296 294 293 292 291 292 292
258 259 262 265 267 270 272 273 274 268 254 246 246 252 255 252 252 256 258 261 262 263 266 268 271 271 269 265 263 262 262 264 264 261 257 254 253 253 252 247 241 237 240 247 253 256 258 262 269 276 281 286 290 293 295 297 301 304 306 308 310 311 312 312 312 312 311 311 310 311 311 312 312 311 311 312 313 313 313 313 313 312 311 310 309 307 305 303 301 299 298 297 295 294 293 293 293
265 264 264 267 269 270 269 267 264 252 248 251 249 253 264 258 256 261 261 262 266 268 270 274 276 273 270 268 265 264 264 263 262 258 252 249 249 249 245 237 234 238 245 251 255 256 259 264 271 276 282 287 291 294 296 300 303 306 308 309 311 311 311 312 311 310 310 310 310 310 311 311 311 311 311 312 312 312 312 312 312 312 311 311 309 308 306 304 303 301 300 298 297 296 295 294 294
264 265 267 270 271 269 264 257 250 240 245 258 248 239 266 274 272 271 266 267 271 272 273 276 276 273 271 269 267 266 265 262 260 257 251 249 245 240 235 233 237 244 249 254 257 258 262 267 272 277 283 288 292 295 299 302 306 308 309 310 310 311 311 311 310 310 310 311 311 311 311 311 311 311 311 311 311 310 311 311 311 311 311 310 309 308 307 305 303 302 301 300 299 298 297 296 295
262 267 271 272 274 277 269 256 249 249 258 267 249 239 260 275 274 272 268 268 269 267 271 276 275 276 276 273 272 271 270 265 259 255 253 250 243 234 231 235 242 247 251 256 260 262 266 269 272 277 283 289 293 297 301 304 307 309 310 310 311 311 311 311 310 311 311 310 310 310 311 311 310 310 310 309 309 309 309 310 310 310 310 310 309 308 307 306 304 303 302 301 300 299 298 297 297
260 266 271 272 277 279 273 265 257 259 266 265 246 236 248 271 273 273 270 267 269 273 278 282 280 279 278 276 275 273 271 267 259 253 250 245 236 232 233 238 244 250 254 259 262 264 267 270 273 278 284 290 294 298 302 305 306 308 309 310 311 311 311 311 311 311 311 310 310 309 310 310 309 309 308 307 307 308 308 309 310 310 310 309 309 308 307 307 306 305 303 302 301 300 299 299 298
256 260 264 266 273 274 274 272 260 261 266 259 248 235 232 271 273 267 265 269 277 286 288 286 281 279 280 280 280 275 271 267 260 253 245 236 230 232 235 240 246 252 257 261 264 267 270 272 274 279 285 291 295 298 301 303 306 308 309 310 311 311 311 311 311 310 310 309 309 309 309 308 308 306 306 306 306 307 308 309 309 309 309 309 309 308 308 307 306 305 305 304 303 302 302 301 300
250 250 254 260 268 267 265 259 252 261 270 261 258 246 235 266 277 266 264 275 286 295 293 288 285 287 291 290 286 278 272 268 262 253 242 233 230 232 237 243 249 254 259 264 267 270 271 272 275 280 286 291 295 298 300 303 305 307 308 310 310 311 311 310 310 310 310 309 308 308 308 307 306 305 305 305 306 307 307 308 309 309 309 309 309 308 307 307 306 305 305 304 304 303 303 302 301
244 245 246 251 259 256 250 244 232 222 263 264 261 244 227 231 266 273 277 289 295 296 295 294 292 293 296 297 293 283 275 271 262 251 243 236 235 239 244 250 252 256 263 268 269 270 271 272 275 281 287 292 295 298 300 303 305 306 308 309 309 310 310 310 310 310 309 309 308 307 307 306 305 305 304 305 305 306 307 307 308 308 308 308 308 307 307 306 305 305 304 303 303 303 303 302 302
239 240 229 221 244 289 251 238 213 225 248 253 242 226 222 239 264 279 285 290 296 297 297 296 293 294 297 299 298 288 277 271 264 254 247 243 243 247 251 253 253 258 267 271 271 272 272 273 277 284 288 292 294 298 300 302 304 305 306 307 308 309 309 309 310 310 309 309 308 307 306 306 305 304 304 304 304 304 305 306 306 307 307 307 307 306 306 305 305 304 303 303 302 302 302 302 301
237 232 211 195 144 74 253 258 280 256 254 245 229 225 241 253 268 282 287 295 302 301 300 297 295 298 301 303 301 292 280 272 266 259 252 250 250 252 255 255 256 261 270 274 274 275 274 276 280 285 288 291 293 296 298 300 302 303 304 305 307 308 308 309 309 310 309 308 307 307 306 305 304 303 303 302 303 303 304 304 305 305 305 305 305 304 304 304 304 303 303 302 302 302 301 301 300
233 225 211 212 212 186 216 227 199 247 274 251 213 209 244 252 270 289 297 304 304 301 302 300 298 300 304 308 308 302 292 281 271 263 257 255 254 255 257 259 261 265 272 276 278 277 277 278 281 285 287 289 292 294 296 298 299 301 302 304 306 307 308 309 309 309 309 308 307 306 306 305 303 302 302 302 302 302 303 303 304 304 304 304 303 303 302 302 302 301 301 301 300 300 300 299 299
225 216 214 226 233 228 235 246 239 252 303 269 220 228 255 265 281 292 298 302 301 302 302 298 299 303 308 314 314 310 302 291 280 271 264 258 256 257 260 262 264 266 273 278 280 279 278 278 280 283 286 288 291 293 295 296 298 299 302 304 306 307 308 308 309 309 308 307 307 306 305 304 302 301 301 301 301 301 302 303 303 303 303 303 302 302 302 301 301 300 300 299 298 298 297 296 296
222 213 220 233 238 241 251 265 262 252 281 267 237 247 266 276 288 293 297 302 303 305 301 298 302 307 311 315 315 311 304 295 286 278 271 263 260 260 262 264 265 267 274 279 280 279 278 277 279 282 286 289 291 293 294 295 297 299 301 303 305 306 307 308 308 308 308 307 306 304 304 302 301 300 300 300 300 300 301 302 302 302 302 302 302 301 301 301 301 300 299 298 297 297 296 295 294
225 221 227 235 240 245 242 246 301 289 259 268 247 255 270 277 286 293 299 305 306 305 300 299 303 306 309 311 312 311 304 296 289 281 274 266 262 262 264 265 266 269 275 279 280 280 279 279 280 283 287 290 291 293 294 295 297 299 301 303 304 305 306 307 307 307 306 305 304 303 302 301 300 299 299 299 299 300 300 301 301 301 301 301 301 301 301 301 300 300 299 298 298 297 296 295 293
235 235 237 237 236 235 218 208 308 273 262 288 259 254 265 266 275 293 305 308 307 305 300 301 305 306 308 309 310 309 301 295 291 286 280 273 269 267 267 267 267 270 275 279 281 281 280 281 282 284 287 289 291 293 294 295 296 298 300 302 304 305 305 306 306 305 305 304 303 302 302 301 300 299 299 299 299 299 300 300 300 300 300 299 299 299 300 300 299 299 299 299 298 297 296 295 294
240 238 239 240 243 242 232 225 228 219 235 287 282 269 266 271 282 299 312 310 307 305 304 307 310 309 309 310 311 307 301 296 292 288 284 279 275 271 268 267 268 271 275 277 279 281 283 283 283 285 286 287 290 292 294 295 297 298 300 302 303 304 304 304 304 304 304 303 302 302 302 301 299 298 298 298 298 298 299 299 299 299 298 298 298 298 299 298 298 298 298 299 298 298 296 295 294
244 240 238 239 242 242 245 248 245 244 220 209 285 288 253 273 292 302 307 311 309 308 310 311 311 310 310 310 310 307 304 299 293 289 285 281 277 271 267 266 267 269 273 276 279 281 283 284 284 285 286 287 290 292 294 296 297 298 300 301 302 303 303 303 304 304 304 303 302 302 302 301 299 298 298 298 298 298 298 298 299 298 298 297 297 297 297 297 296 297 297 297 297 297 296 295 294
253 251 248 247 245 236 233 250 248 245 235 230 257 268 261 276 292 301 307 313 311 312 314 312 311 311 309 309 309 307 305 302 298 293 288 283 278 271 267 265 265 268 273 276 279 280 282 284 286 287 288 289 290 292 295 296 296 298 299 300 301 302 303 303 304 304 303 303 302 302 301 300 299 298 298 298 298 298 298 298 298 297 296 295 296 296 295 295 295 295 296 296 296 296 295 295 294